Seeley, CA

11:24 PM PST on December 02, 2016 (GMT -0800)
El Centro Naval Air Facility

Weather History for KNJK - March, 2012

Change the Weather History Date:

Friday, March 30, 2012

  Actual Average Record
Temperature  
Mean Temperature 70 °F -  
Max Temperature 87 °F 76 °F 95 °F (2004)
Min Temperature 53 °F 53 °F 46 °F (1998)
Cooling Degree Days 4    
Growing Degree Days 20 (Base 50)    
Moisture  
Dew Point 45 °F    
Average Humidity 41    
Maximum Humidity 64    
Minimum Humidity 23    
Precipitation  
Precipitation 0.00 in - - ()
Sea Level Pressure  
Sea Level Pressure 29.90 in    
Wind  
Wind Speed 5 mph (South)    
Max Wind Speed 14 mph    
Max Gust Speed -    
Visibility 10 miles    
Events      
Averages and records for this station are not official NWS values.
T = Trace of Precipitation, MM = Missing Value Source: NWS Daily Summary

Daily Weather History Graph

Daily Weather History Graph

Search for Another Location

Airport or City:

Trip Planner

Search our weather history database for the weather conditions in past years. The results will help you decide how hot, cold, wet, or windy it might be!

Date:

Astronomy

Mar. 30, 2012 Rise Set
Actual Time 6:32 AM PDT 7:01 PM PDT
Civil Twilight 6:07 AM PDT 7:26 PM PDT
Nautical Twilight 5:38 AM PDT 7:55 PM PDT
Astronomical Twilight 5:09 AM PDT 8:25 PM PDT
Moon 11:56 AM PDT (3/30) 1:26 AM PDT (3/30)
Length of Visible Light 13h 18m
Length of Day
12h 29m
Waxing Crescent, 50% of the Moon is Illuminated
Mar 30
Waxing Crescent
Mar 30
First Quarter
Apr 6
Full
Apr 13
Last Quarter
Apr 21
New

Hourly Weather History & Observations

Time (PDT) Temp. Heat Index Dew Point Humidity Pressure Visibility Wind Dir Wind Speed Gust Speed Precip Events Conditions
12:56 AM 64.0 °F - 42.1 °F 45% 29.91 in 10.0 mi West 4.6 mph - N/A   Clear
1:56 AM 61.0 °F - 37.9 °F 42% 29.91 in 10.0 mi NW 5.8 mph - N/A   Clear
2:56 AM 57.9 °F - 41.0 °F 53% 29.90 in 10.0 mi WNW 3.5 mph - N/A   Clear
3:55 AM - - - N/A% - - North - - N/A   Unknown
3:56 AM 57.9 °F - 42.1 °F 56% 29.90 in 10.0 mi SW 8.1 mph - N/A   Clear
4:56 AM 57.0 °F - 39.0 °F 51% 29.91 in 10.0 mi West 6.9 mph - N/A   Clear
5:56 AM 55.9 °F - 42.1 °F 60% 29.91 in 10.0 mi Calm Calm - N/A   Scattered Clouds
6:56 AM 53.1 °F - 41.0 °F 64% 29.93 in 10.0 mi South 3.5 mph - N/A   Scattered Clouds
7:56 AM 62.1 °F - 41.0 °F 46% 29.95 in 10.0 mi SSW 3.5 mph - N/A   Scattered Clouds
8:56 AM 68.0 °F - 46.0 °F 45% 29.96 in 10.0 mi Calm Calm - N/A   Scattered Clouds
9:56 AM 73.0 °F - 46.9 °F 39% 29.97 in 10.0 mi Calm Calm - N/A   Scattered Clouds
10:56 AM 78.1 °F - 44.1 °F 30% 29.97 in 10.0 mi Calm Calm - N/A   Scattered Clouds
11:56 AM 81.0 °F - 39.9 °F 23% 29.95 in 10.0 mi ESE 5.8 mph - N/A   Scattered Clouds
12:56 PM 82.0 °F - 46.9 °F 29% 29.93 in 10.0 mi SE 5.8 mph - N/A   Clear
1:56 PM 84.0 °F - 46.9 °F 27% 29.90 in 10.0 mi ESE 6.9 mph - N/A   Clear
2:56 PM 84.0 °F - 48.9 °F 29% 29.87 in 10.0 mi SE 8.1 mph - N/A   Clear
3:56 PM 86.0 °F - 50.0 °F 29% 29.85 in 10.0 mi ESE 8.1 mph - N/A   Scattered Clouds
4:56 PM 84.9 °F - 51.1 °F 31% 29.84 in 10.0 mi ESE 6.9 mph - N/A   Scattered Clouds
5:56 PM 82.9 °F 82.4 °F 57.0 °F 41% 29.83 in 10.0 mi East 6.9 mph - N/A   Scattered Clouds
6:56 PM 75.0 °F - 55.0 °F 50% 29.83 in 10.0 mi ESE 8.1 mph - N/A   Clear
7:56 PM 73.0 °F - 50.0 °F 44% 29.85 in 10.0 mi South 6.9 mph - N/A   Clear
8:56 PM 75.0 °F - 46.0 °F 36% 29.87 in 10.0 mi SW 5.8 mph - N/A   Clear
9:56 PM 70.0 °F - 46.9 °F 44% 29.88 in 10.0 mi WSW 8.1 mph - N/A   Clear
10:56 PM 73.0 °F - 44.1 °F 35% 29.88 in 10.0 mi WSW 13.8 mph - N/A   Clear
11:56 PM 73.0 °F - 41.0 °F 31% 29.88 in 10.0 mi West 13.8 mph - N/A   Clear